Theta_e
324 329 337 342 344 346 348 348 348 348 348 347 347 347 347 347 346 346 346 347 347 346 346 347 348 349 349 348 347 346 347 346 346 345 343 343 347 351 351 352 351 349 354
325 327 334 337 341 343 345 345 344 345 345 345 345 344 344 344 344 343 342 342 344 346 346 346 347 348 348 347 346 346 346 347 348 346 345 343 342 351 352 352 351 351 353
322 326 327 334 336 339 339 339 340 340 341 342 341 341 341 340 339 339 338 338 340 342 344 345 345 344 344 344 344 344 344 345 346 344 342 339 334 350 354 352 351 352 352
320 321 323 332 333 335 334 335 335 336 335 336 337 336 334 333 334 334 333 333 334 335 336 337 337 338 339 340 342 342 343 343 344 341 335 338 332 349 351 351 353 352 353
316 319 321 328 330 331 330 330 330 331 332 334 329 328 327 327 326 326 326 326 327 329 331 333 334 334 333 334 336 338 337 336 336 336 333 336 333 339 349 351 352 351 347
314 316 321 324 326 326 325 325 325 325 327 326 323 322 321 321 321 321 320 321 321 322 324 328 327 327 326 327 327 329 329 328 330 330 332 334 335 346 345 345 347 349 348
310 313 316 321 322 322 322 321 321 321 321 320 319 318 317 317 317 317 318 318 318 318 320 320 320 319 319 320 321 322 322 321 319 323 328 331 334 345 343 344 345 347 349
308 310 312 317 318 318 319 318 318 317 317 316 315 314 314 313 313 313 315 315 316 316 317 317 317 317 316 316 315 315 315 315 313 316 325 329 336 343 342 342 343 344 347
305 306 307 308 310 314 315 315 315 314 312 311 310 310 309 309 309 309 310 312 312 313 314 314 314 314 314 314 313 312 312 315 311 314 322 327 337 340 341 341 341 342 343
300 301 301 304 305 305 305 311 310 310 309 307 306 305 306 306 306 305 305 308 309 310 310 311 311 311 311 312 312 312 315 316 303 305 312 319 329 332 337 337 336 338 340
299 299 299 299 301 302 302 305 306 306 305 305 303 302 305 298 298 300 303 305 306 307 308 309 309 309 308 308 309 311 311 302 301 302 304 319 318 322 328 333 334 335 336
295 297 298 298 298 300 300 299 300 300 299 299 299 298 298 297 297 300 303 304 304 304 304 305 306 304 302 299 299 304 300 300 300 301 302 316 314 316 318 321 324 329 333
296 296 297 297 298 297 296 298 298 298 297 298 297 297 297 297 296 296 296 296 296 300 295 297 296 296 296 296 297 297 298 298 298 300 303 310 311 313 315 316 318 319 324
297 297 296 297 297 297 297 297 297 297 297 296 295 295 295 294 293 293 293 293 293 293 292 292 293 294 294 295 295 295 295 295 296 298 300 309 308 311 314 316 317 318 320
298 297 295 295 296 297 296 296 296 295 295 295 295 294 294 293 292 293 292 292 291 291 291 290 291 291 292 293 294 294 293 293 294 296 297 305 307 309 311 314 315 317 318
300 297 296 295 295 297 295 295 295 295 294 294 294 293 293 292 290 291 291 291 290 290 290 290 290 290 290 292 292 293 293 293 294 294 295 296 304 306 308 311 313 315 317
300 298 295 295 296 295 295 295 295 294 294 293 293 292 292 292 290 290 290 289 289 289 289 289 289 289 289 290 290 291 292 293 293 293 294 295 296 302 305 308 310 312 314
299 297 296 297 295 294 293 294 294 293 292 293 292 292 291 291 290 289 288 288 289 288 288 288 288 287 287 288 287 289 290 290 291 291 292 294 295 296 300 304 307 309 310
299 296 295 294 294 293 293 293 293 292 291 291 291 290 290 290 290 288 287 287 288 287 287 287 286 286 285 286 287 288 288 288 289 292 292 293 294 297 297 302 306 307 308
298 296 294 294 292 293 293 292 291 291 291 290 289 290 290 289 289 288 287 287 287 286 286 286 285 285 285 285 287 286 287 288 289 288 290 293 294 295 294 297 299 301 307
297 295 294 292 292 293 291 290 289 289 289 289 289 289 289 288 288 287 286 286 285 284 285 285 285 284 284 285 283 283 284 287 287 288 291 290 290 291 292 292 294 297 299
296 295 293 293 292 292 292 291 290 289 289 289 289 288 288 287 287 286 285 284 284 283 284 284 284 283 283 284 281 280 279 282 285 285 286 286 288 289 292 292 290 291 291
295 294 293 293 292 292 292 291 289 289 287 286 287 286 287 287 286 286 284 284 283 283 282 282 282 282 281 282 282 280 277 277 279 283 284 284 285 286 287 288 290 291 291
295 295 293 293 292 292 292 291 288 287 284 285 287 286 286 286 285 285 285 283 283 282 282 282 284 282 281 280 281 284 282 280 277 276 282 283 284 285 285 287 288 289 289
295 293 293 292 292 292 292 291 288 286 285 286 286 286 285 284 284 284 284 283 282 282 282 282 281 281 281 280 280 280 280 280 280 278 276 278 283 284 285 285 285 286 287
294 292 292 291 291 291 291 290 288 286 286 284 283 283 283 283 283 283 283 282 282 281 280 281 281 281 280 280 280 280 280 278 277 277 276 277 278 280 283 283 283 284 285
Wind_Speed
6 8 9 10 12 14 15 14 12 13 14 14 14 14 14 14 15 15 14 13 10 9 9 10 11 11 11 10 10 10 9 9 9 10 9 9 8 8 5 4 5 6 6
8 8 11 10 11 13 15 16 16 15 14 14 13 13 14 14 14 14 14 14 13 13 11 10 11 13 13 12 11 11 11 11 9 9 10 9 11 10 7 3 1 3 8
7 10 8 10 9 11 14 13 13 12 11 13 14 13 14 14 14 13 13 15 15 15 15 16 16 15 14 13 11 11 11 12 11 11 13 6 7 8 8 3 0 2 4
8 9 7 8 10 12 11 12 12 11 11 11 11 12 12 11 12 13 13 13 13 13 13 12 12 14 15 15 15 13 14 13 11 12 7 7 5 7 5 2 3 3 4
8 8 6 9 11 12 11 12 12 12 12 14 13 12 12 12 13 13 13 13 13 13 13 12 12 14 13 13 15 15 16 16 17 13 7 6 4 5 8 10 8 9 7
9 8 7 10 11 12 12 12 12 12 12 13 13 13 12 12 13 13 13 13 13 13 13 13 13 12 11 11 10 10 11 12 14 10 9 7 6 7 8 9 9 9 8
9 8 6 10 12 12 12 12 12 12 12 11 11 12 12 12 13 13 13 14 14 14 14 13 14 14 14 14 12 12 12 13 8 6 7 6 6 6 8 9 10 9 10
9 8 7 9 11 10 11 11 11 11 12 11 11 12 12 12 13 13 14 14 15 15 15 15 16 15 15 14 13 14 15 15 8 6 7 6 7 7 8 8 11 12 11
9 8 8 7 9 10 10 11 11 11 11 11 10 11 12 12 13 14 14 14 15 14 15 15 16 17 17 15 15 16 16 15 7 5 6 4 12 12 10 10 13 14 13
8 8 8 8 8 7 6 10 11 11 11 10 9 7 7 10 10 11 10 11 13 12 14 15 16 15 16 16 16 18 17 14 9 9 6 4 14 13 13 12 13 15 15
7 8 8 8 7 8 7 7 10 11 9 8 7 1 0 5 5 7 8 10 11 12 14 14 15 16 17 16 16 16 13 6 8 5 4 11 17 15 15 16 15 16 17
9 7 7 7 7 8 8 7 7 6 4 4 4 4 3 5 3 4 5 12 12 15 16 17 16 16 13 5 5 10 4 6 5 6 5 18 19 18 17 17 17 18 18
10 7 8 8 8 7 6 5 3 3 3 4 4 3 2 4 3 3 3 3 4 9 4 7 7 5 7 5 5 5 5 5 4 5 7 16 18 18 18 17 18 19 20
12 11 9 9 8 8 5 4 5 4 4 4 4 2 2 2 3 4 3 4 4 4 6 5 4 5 6 6 6 6 6 5 4 3 5 13 17 19 20 19 19 19 20
13 13 11 9 8 7 7 5 5 5 4 5 5 3 3 4 4 4 4 4 4 4 3 4 4 4 5 6 5 6 6 6 6 4 4 11 16 19 20 19 19 19 20
14 14 12 10 8 8 6 7 5 5 5 4 4 4 4 4 3 3 3 3 4 3 3 3 3 4 5 5 6 8 9 8 8 8 6 6 16 19 20 20 20 19 20
13 13 15 11 10 9 8 7 6 5 6 5 5 6 5 4 4 3 3 3 3 2 3 3 4 4 5 5 6 6 7 8 8 10 8 6 7 12 17 19 21 21 21
11 15 14 13 11 9 7 6 5 5 4 5 5 5 6 6 4 3 3 3 2 1 2 3 4 4 5 5 5 5 6 7 10 10 8 7 5 5 9 15 19 20 22
13 14 14 13 12 10 8 6 6 7 5 5 5 5 7 6 5 3 3 2 2 2 3 3 4 4 4 5 7 7 8 10 10 8 8 6 6 5 4 8 14 15 19
14 14 14 11 10 9 6 5 4 5 4 5 5 5 7 5 5 4 3 2 2 2 3 3 4 3 4 5 8 10 9 10 7 5 6 6 4 3 5 5 4 5 12
14 15 16 14 12 11 6 7 5 7 5 4 4 7 8 6 7 6 4 2 2 2 0 1 2 4 3 4 5 5 8 10 6 4 2 2 5 5 3 4 4 3 4
17 16 16 17 15 12 9 7 4 5 4 5 5 7 7 7 7 5 5 3 3 2 1 2 1 2 3 2 2 4 5 6 5 9 8 6 4 4 4 5 8 9 8
17 18 18 19 18 15 11 7 3 4 4 4 6 5 6 8 7 6 6 5 4 3 3 2 1 2 3 3 3 1 5 3 7 5 6 5 3 3 5 7 7 7 9
16 16 17 17 17 15 14 13 13 11 7 4 6 5 6 8 7 7 7 6 5 3 3 3 3 3 2 4 2 4 4 2 4 9 4 4 9 7 6 7 7 8 8
15 15 15 16 16 15 16 15 13 11 6 5 5 9 8 6 8 7 7 6 5 4 4 4 3 4 3 3 3 2 3 3 5 6 16 5 6 8 7 9 8 9 11
12 12 14 16 15 15 15 15 16 16 11 7 7 8 6 4 5 7 7 6 6 5 5 4 4 4 4 4 3 4 5 4 3 4 7 16 17 10 9 10 10 10 9
Wind_Direction
86 81 58 58 60 61 69 72 80 80 78 75 68 63 59 59 56 52 47 45 40 34 27 24 23 32 32 28 22 18 14 12 6 359 353 330 309 281 274 311 336 318 3
103 84 58 57 71 66 67 63 60 60 58 63 63 59 56 51 51 48 43 37 31 29 32 31 27 27 30 21 14 11 10 8 357 353 332 309 289 254 239 238 321 323 336
105 104 71 73 71 69 71 74 72 66 67 71 67 64 60 53 52 50 49 40 34 32 29 29 32 27 21 16 14 10 7 6 0 345 321 287 268 267 187 190 28 319 312
99 85 78 81 90 88 86 84 85 88 83 84 82 72 66 65 62 55 51 47 41 37 30 22 16 19 19 13 10 8 7 2 354 327 301 305 350 23 70 56 22 335 306
103 101 95 98 97 96 90 87 87 83 82 83 82 76 68 66 61 56 50 44 37 32 31 30 29 28 20 8 13 13 11 356 340 317 302 343 2 328 28 21 5 351 348
108 104 106 109 106 102 98 95 91 88 87 86 79 72 64 60 58 55 50 46 40 33 29 31 28 23 17 14 9 3 354 347 337 332 327 322 329 34 20 9 358 344 322
109 114 108 116 111 110 106 100 96 92 90 86 83 77 69 63 58 51 46 43 39 35 31 26 19 12 6 2 0 358 354 348 336 312 307 320 322 7 354 352 345 336 333
115 114 107 93 102 105 108 104 100 98 95 93 89 86 80 71 60 54 43 40 35 30 28 23 16 10 5 360 0 357 348 334 319 298 295 294 305 347 347 347 341 336 332
130 134 140 131 111 106 108 111 108 103 96 93 91 87 77 71 63 53 45 42 35 30 26 20 14 7 4 1 3 359 337 323 312 288 333 6 17 360 348 342 336 328 325
150 152 142 142 149 130 113 120 117 112 102 96 90 94 92 79 80 65 47 42 41 34 29 22 17 11 7 11 6 357 337 338 4 348 341 324 4 346 333 327 328 317 315
168 167 156 164 154 135 133 138 130 128 128 125 114 164 167 71 36 84 52 41 41 32 29 24 19 17 11 5 1 356 1 357 344 326 324 331 351 341 333 323 318 312 309
179 181 163 164 158 154 156 167 167 165 152 105 80 69 75 106 119 80 54 42 32 31 23 19 16 13 4 350 347 349 347 345 337 333 326 344 336 328 320 313 312 309 304
178 178 172 170 165 171 150 161 158 144 139 123 97 86 55 87 58 55 45 32 24 26 21 11 9 6 352 347 346 338 340 342 326 333 323 318 325 321 318 314 309 306 303
181 178 175 170 163 174 151 160 156 143 146 137 125 83 106 91 71 58 53 45 44 21 23 8 1 345 339 330 335 331 328 323 305 298 299 309 315 314 312 311 308 305 303
187 176 172 162 166 168 156 177 157 141 152 137 130 95 58 85 72 66 52 49 50 29 27 348 344 333 332 322 320 313 315 310 307 297 293 299 306 308 307 305 306 305 304
184 174 165 162 164 161 175 164 159 153 146 146 129 129 91 95 90 88 84 74 70 36 349 326 320 329 318 317 317 321 314 309 305 296 300 302 307 309 307 309 310 309 307
186 165 168 162 167 166 181 166 160 163 152 154 141 140 128 103 105 103 104 82 78 350 319 327 330 335 328 320 313 309 297 292 291 290 295 294 293 303 304 318 317 313 311
173 170 164 170 171 166 175 161 154 151 156 151 145 147 139 126 128 128 115 109 105 331 345 338 342 347 326 320 304 293 285 283 276 273 279 278 285 300 312 309 306 310 313
174 170 167 168 169 163 166 162 160 157 172 160 152 153 148 143 140 132 148 159 91 17 9 350 8 339 324 313 305 307 289 276 272 272 257 265 267 266 273 289 298 297 303
169 168 163 165 161 162 156 153 149 150 176 158 165 158 144 145 155 173 177 165 107 55 11 10 345 309 298 298 316 302 285 284 278 273 266 267 266 317 292 293 283 280 285
163 164 165 165 170 170 168 168 167 176 176 169 171 155 158 159 174 183 177 139 108 98 149 312 277 310 305 318 325 319 289 276 257 259 287 281 291 295 311 295 297 323 303
166 167 167 175 176 180 176 174 161 161 185 171 168 164 168 165 182 173 163 161 151 134 11 279 283 325 288 357 322 286 318 319 13 326 307 296 285 302 327 337 316 299 294
169 174 175 180 180 182 172 165 158 125 101 153 178 170 176 171 178 171 173 166 166 146 210 233 290 261 278 311 277 227 324 300 334 287 299 275 348 320 310 293 281 300 301
178 177 180 180 183 183 174 178 182 182 172 189 178 163 174 176 176 174 175 167 166 176 209 223 228 211 218 257 306 237 229 250 322 315 290 330 309 282 294 284 287 286 306
175 178 182 184 188 187 188 186 179 185 179 160 162 168 171 179 177 178 171 169 171 183 200 217 239 240 227 236 229 250 270 269 246 251 298 281 289 291 289 289 288 287 286
174 176 180 188 194 189 190 190 189 186 177 159 157 163 171 178 179 179 174 166 176 187 204 218 228 238 242 244 241 237 229 231 238 249 279 295 295 286 288 285 280 273 274